Starlink 32022

operational
NORAD ID: 60149 Int'l Des: 2024-120 Owner: SPXS Country: US Constellation: starlink
LEOCIRCULAR

关于 Starlink 32022

正在加载描述...

实时位置

正在加载3D地球...

即将过境

高度历史

Altitude vs Time

uPlot chart will show altitude changes over time

两行轨道根数

1 60149U 24120Q 26036.20838634 .00028214 00000-0 96055-3 0 9995
2 60149 53.1590 110.7595 0001262 88.0660 272.0485 15.30218856 91481
Epoch: Feb 5, 2026 • Age: 28 hours

当前状态

高度 493.9 km
速度 7.62 km/s
星下点 -52.22°S, 121.85°E
发射日期 Jun 27, 2024
运行时间 1.6 years
类型 internet

技术详情

分类 Payload
质量 730.00 kg
干质量 700.00 kg
总质量 730.00 kg
长度 0.30 m
直径 4.10 m
跨度 29.00 m
形状 Box + pan
制造商 SPXS
平台类型 Starlink V2M
阶段状态 In Orbit
所有者/国家 SPXS/US

大型星座

Loading constellations...